This demonstration page uses our WeatherBlox Daily Observations layout. Learn more.

Left ArrowRight Arrow

Hourly Observations for March 30, 2021

Temp ( °F °C ) Dew Point ( °F °C ) Humidity (%) Winds ( mph kmh ) Pressure ( in mb ) Visibility ( mi km ) Precip ( " mm )
12:53 am 00:53 Clear 48 8.9 40 4.4 74 74 Calm 30.19 1022 10 16 0.00 0.00
3:53 am 03:53 Clear 55 12.8 39 3.9 55 55 SE 6 9 30.16 1022 10 16 0.00 0.00
4:53 am 04:53 Clear 53 11.7 43 6.1 69 69 SSE 6 9 30.17 1022 10 16 0.00 0.00
5:53 am 05:53 Clear 48 8.9 42 5.6 80 80 Calm 30.19 1022 10 16 0.00 0.00
6:53 am 06:53 Clear 48 8.9 44 6.7 86 86 Calm 30.22 1023 10 16 0.00 0.00
7:53 am 07:53 Sunny 51 10.6 46 7.8 83 83 E 3 6 30.24 1024 10 16 0.00 0.00
8:20 am 08:20 Mostly Cloudy 51 10.6 47 8.3 86 86 Calm 30.27 1025 10 16 0.00 0.00
8:53 am 08:53 Cloudy 54 12.2 47 8.3 77 77 E 5 7 30.26 1025 10 16 0.00 0.00
9:53 am 09:53 Cloudy 57 13.9 46 7.8 67 67 ESE 9 15 30.25 1025 10 16 0.00 0.00
10:53 am 10:53 Cloudy 62 16.7 48 8.9 60 60 ESE 9 15 30.25 1024 10 16 0.00 0.00
11:53 am 11:53 Cloudy 65 18.3 50 10 59 59 SSE 10 17 30.25 1024 10 16 0.00 0.00
12:53 pm 12:53 Cloudy 66 18.9 51 10.6 59 59 SE 10 17 30.23 1024 10 16 0.00 0.00
1:44 pm 13:44 Mostly Cloudy 69 20.6 53 11.7 57 57 SSE 10 17 30.20 1023 10 16 0.00 0.00
1:53 pm 13:53 Mostly Sunny 68 20 52 11.1 57 57 SSE 9 15 30.21 1023 10 16 0.00 0.00
2:53 pm 14:53 Mostly Sunny 72 22.2 52 11.1 50 50 SSE 8 13 30.18 1022 10 16 0.00 0.00
3:53 pm 15:53 Partly Cloudy 74 23.3 52 11.1 46 46 S 9 15 30.16 1021 10 16 0.00 0.00
4:53 pm 16:53 Sunny 75 23.9 51 10.6 43 43 S 9 15 30.13 1020 10 16 0.00 0.00
5:53 pm 17:53 Partly Cloudy 75 23.9 53 11.7 46 46 undefined N/A 30.13 1020 10 16 0.00 0.00
6:53 pm 18:53 Cloudy 73 22.8 54 12.2 51 51 SSE 12 19 30.13 1020 10 16 0.00 0.00
7:53 pm 19:53 Cloudy 71 21.7 55 12.8 57 57 SSE 10 17 30.13 1020 10 16 0.00 0.00
8:53 pm 20:53 Mostly Cloudy 69 20.6 55 12.8 61 61 undefined N/A 30.14 1021 10 16 0.00 0.00
9:53 pm 21:53 Cloudy 68 20 55 12.8 63 63 SE 7 11 30.16 1021 10 16 0.00 0.00
10:53 pm 22:53 Cloudy 67 19.4 56 13.3 68 68 ESE 6 9 30.16 1021 10 16 0.00 0.00
11:53 pm 23:53 Cloudy 66 18.9 57 13.9 73 73 SE 5 7 30.16 1022 10 16 0.00 0.00

Powered by AerisWeather